Agen Poker | Poker Online | Poker Uang Asli | Dewa Poker

Jackpot

Texas Poker Multi Jackpot System

Kini Telah hadir Jackpot SUPER ROYAL FLUSH

Kini Telah hadir Jackpot 2000 (khusus table VIP keatas).

Ikutilah global jackpot yang tersedia di system kami, dengan system jackpot terbaru dan pertama di indonesia, anda dapat membeli jackpot dengan harga 100 rupiah saja dan menangkan hadiahnya hingga puluhan juta rupiah.

Jackpot bukanlah suatu keharusan untuk dibeli, namun kami memberikan suatu fitur tambahan untuk member tercinta dari www.kudapoker.win.

Terdapat tiga pilihan harga jackpot yang bisa anda beli yaitu :100,500,1000 dan 2000(khusus table VIP Keatas) rupiah.

Hadiah dari Multi jackpot system www.kudapoker.win

  1. full house x 10 harga jackpot yang anda beli.
      (contoh:anda membeli 1000 maka:1000 X10 = 10.000)
  2. four of kind x 250 harga jackpot yang anda beli
      (contoh:anda membeli 1000 maka:1000 X250 = 250.000)
  3. Straight flush x 1200
      (contoh:anda membeli 1000 maka:1000 X1200 = 1.200.000)
  4. Royal flush x 10000 harga jackpot yang anda beli
      (contoh:anda membeli 1000 maka:1000 X10000 = 10.000.000)
  5. SUPER ROYAL FLUSH x 30000 harga jackpot yang anda beli
      (contoh:anda membeli 1000 maka:1000 X30000 = 30.000.000)

Kondisi kartu

  1. full house adalah kondisi kartu dimana kartu anda dan kartu tengah dengan total 7 kartu bisa mendapatkan nilai 5 kartu dengan kombinasi 1 tris(three of kind) dan 1 pair, contoh 3 kartu 10 dan 2 kartu 5
  2. Four of kind adalah kondisi kartu dimana kartu anda dan kartu tengah dengan total 7 kartu bisa mendapatkan nilai 5 kartu dengan kombinasi 4 kartu yang sama jumlah dan 1 kartu apapun juga contoh anda mendapatkan 4 buah kartu angka 3 dan 1 kartu apapun.
  3. Staright flush adalah kondisi kartu dimana kartu anda dan kartu tengah dengan total 7 kartu bisa mendapatkan nilai 5 kartu dengan kombinasi seri / staright dengan kembang yang sama contoh : urutan kartu dari angka 5, 6, 7, 8 , 9 10 dengan kembang yg sama misalnya as hati
  4. Royal flush adalah kondisi kartu dimana kartu anda dan kartu tengah dengan total 7 kartu bisa mendapatkan nilai 5 kartu dengan kombinasi seri / staright dengan kembang yang sama tetapi kartu tersebut haruslah dimulai dari 10. contoh 10, Queen, Jack, King dan aces dengan kembang yang sama
  5. Super Royal flush adalah kondisi kartu dimana Kedua kartu anda digabung dengan 3 kartu pertama meja haruslah royal flush. contoh kartu anda 10,Queen kembang sama dan 3 kartu pertama meja adalah Jack, King dan aces dengan kembang yang sama

Demikian adalah penjelasan dari Multi Jackpot www.kudapoker.win terima kasih dan selamat bermain salam hoki dari kami

Texas Poker Jackpot Winner

TOP SUPER ROYAL FLUSH
No.TanggalNamaPriceWin
115/08 10:23DONKRAYSuper Royal flush30,000,000
215/08 09:49AGUS12121Super Royal flush3,000,000
315/08 08:05LARAS93Super Royal flush15,000,000
415/08 07:46APUY62Super Royal flush30,000,000
515/08 06:39E2E3UNKUT0Super Royal flush30,000,000
TOP ROYAL FLUSH
No.TanggalNamaPriceWin
115/08 13:59ALDONDONSRoyal flush1,000,000
215/08 13:53BGGB024Royal flush10,000,000
315/08 13:49DERA29Royal flush10,000,000
415/08 13:14MAICICAKRoyal flush10,000,000
515/08 12:43TEMPIK01Royal flush2,000,000
TOP STRAIGHT FLUSH
No.TanggalNamaPriceWin
115/08 14:02ADITIARAHMStraight Flush240,000
215/08 14:01KUKOK12345Straight Flush240,000
315/08 14:01D1EE0890Straight Flush120,000
415/08 13:57DERPStraight Flush120,000
515/08 13:56JOLU72Straight Flush240,000
LATEST JACKPOT
No.TanggalNamaPriceWin
115/08 14:03BORNEOSFull House2,000
215/08 14:03X814A18T8WFour Of A Kind50,000
315/08 14:03ALAM585Full House10,000
415/08 14:03AUA70Full House2,000
515/08 14:03NAUFAL099Full House2,000
615/08 14:03BDE9F2E8Full House2,000
715/08 14:03ALDIYOSFull House10,000
815/08 14:03VENONOTS33Full House10,000
915/08 14:03FDAOVIB2BQFull House20,000
1015/08 14:03WAKANDASFull House1,000
1115/08 14:03ARTO_AKFull House5,000
1215/08 14:03HUNTER_28Full House5,000
1315/08 14:03NICO998Full House20,000
1415/08 14:03KOL22Full House1,000
1515/08 14:03QTHINKSIHFull House5,000
1615/08 14:03ENJ12Full House2,000
1715/08 14:03RXQQQQQQ89Full House10,000
1815/08 14:03MISCKA16Four Of A Kind50,000
1915/08 14:03AB0D186Full House5,000
2015/08 14:03PURWADI92Full House2,000
2115/08 14:03ADI_NITOFull House2,000
2215/08 14:03DEDY2345Full House5,000
2315/08 14:03TOMMY_QFull House2,000
2415/08 14:03DIOZ4CKFull House5,000
2515/08 14:02DHEDHE13Full House20,000
2615/08 14:02DAMIN85Full House20,000
2715/08 14:02FEIREZ17Full House5,000
2815/08 14:02CX1988Full House5,000
2915/08 14:02SCX02Full House10,000
3015/08 14:02ARUN24Full House1,000
3115/08 14:02GHI01Full House2,000
3215/08 14:02LIEMPITEFull House2,000
3315/08 14:02WASIS52Full House20,000
3415/08 14:02VALLENTDAVFull House10,000
3515/08 14:02LIENRYZ7Full House5,000
3615/08 14:02USLUX99Four Of A Kind125,000
3715/08 14:02BRUNO02Full House500
3815/08 14:02ZHOIZ323Full House2,000
3915/08 14:02MJHOLAFull House5,000
4015/08 14:02NADALRIJALFull House5,000
4115/08 14:02REZKY_9999Full House5,000
4215/08 14:02CHANGKUTERFull House10,000
4315/08 14:02BINGGO087Full House5,000
4415/08 14:02KUMINIS30Full House1,000
4515/08 14:02E97DE3EFFull House1,000
4615/08 14:02NHC1000Full House5,000
4715/08 14:02DFB8B264Full House1,000
4815/08 14:02KANGSPATUFull House2,000
4915/08 14:02GUZTVAMPSFull House5,000
5015/08 14:02SELONG89Full House2,000

Domino Multi Jackpot System

Ikutilah global jackpot yang tersedia di system kami, dengan system jackpot terbaru dan pertama di indonesia, anda dapat membeli jackpot dengan harga 100 rupiah saja dan menangkan hadiahnya hingga puluhan juta rupiah.

Jackpot bukanlah suatu keharusan untuk dibeli, namun kami memberikan suatu fitur tambahan untuk member tercinta dari www.kudapoker.win.

Terdapat tiga pilihan harga jackpot yang bisa anda beli yaitu :100,500 dan 1000 rupiah.

Hadiah dari Multi jackpot system www.kudapoker.win

  1. Murni Kecil x 50 harga jackpot yang anda beli.
      (contoh:anda membeli 1000 maka:1000 X 50 = 50.000)
  2. Murni Besar x 50 harga jackpot yang anda beli
      (contoh:anda membeli 1000 maka:1000 X 50 = 50.000)
  3. BALAK x 100 harga jackpot yang anda beli
      (contoh:anda membeli 1000 maka:1000 X 100 = 100.000)
  4. ENAM DEWA x 6666 harga jackpot yang anda beli
      (contoh:anda membeli 1000 maka:1000 X 6666 = 6.666.000)

Demikian adalah penjelasan dari Multi Jackpot www.kudapoker.win terima kasih dan selamat bermain salam hoki dari kami

Domino Jackpot Winner

TOP ENAM DEWA
No.TanggalNamaPriceWin
115/08 10:05THEDUURSmurni enam6,666,000
215/08 08:34SAENG01murni enam3,333,000
315/08 07:42GUJITXXXmurni enam3,333,000
415/08 06:53TOMPELOO1murni enam6,666,000
515/08 05:10SAEUTIK14murni enam6,666,000
TOP BALAK
No.TanggalNamaPriceWin
115/08 14:01NANDO86balak10,000
215/08 13:54T4DJENDERALbalak100,000
315/08 13:52CINHUYbalak50,000
415/08 13:52PT4DMAHA8799balak100,000
515/08 13:48EDEL16balak50,000
LATEST JACKPOT
No.TanggalNamaPriceWin
115/08 14:03DEWAKI11murni besar50,000
215/08 14:03LAPETT93murni kecil25,000
315/08 14:02BERKAHHH01murni kecil25,000
415/08 14:01NANDO86balak10,000
515/08 14:01DN4DADONK7777murni besar50,000
615/08 14:01F2172murni kecil50,000
715/08 14:00ANAM1712murni besar50,000
815/08 13:59GALAH333murni besar50,000
915/08 13:58PLOSO99murni besar50,000
1015/08 13:57HENHEN19murni besar50,000
1115/08 13:57BUKADESmurni kecil25,000
1215/08 13:56PANELIM1murni besar50,000
1315/08 13:55DENDICS9murni besar50,000
1415/08 13:55SEILAmurni besar5,000
1515/08 13:54T4DJENDERALbalak100,000
1615/08 13:52BLUEDEVIL8murni besar50,000
1715/08 13:52HA23XOGQZ9murni besar50,000
1815/08 13:52CINHUYbalak50,000
1915/08 13:52YOUWIN1murni kecil50,000
2015/08 13:52PT4DMAHA8799balak100,000
2115/08 13:51VIVIS12murni besar5,000
2215/08 13:50CUPI266murni besar50,000
2315/08 13:49A65BE476murni besar50,000
2415/08 13:49AGV900murni kecil50,000
2515/08 13:49IDK897551murni besar50,000
2615/08 13:48AGV900murni kecil50,000
2715/08 13:48DIGUL2308murni besar25,000
2815/08 13:48GLENCOMmurni kecil50,000
2915/08 13:48EDEL16balak50,000
3015/08 13:47B8S3MXPI8Umurni besar50,000
3115/08 13:47DM82997murni besar50,000
3215/08 13:46REMIX70murni besar50,000
3315/08 13:44UCUATTAmurni kecil50,000
3415/08 13:44ARIGINmurni besar5,000
3515/08 13:43TOBO99murni besar25,000
3615/08 13:42LDT1HXL044murni besar50,000
3715/08 13:41F2172murni kecil50,000
3815/08 13:41PPNbalak50,000
3915/08 13:41FIRAUN94murni kecil5,000
4015/08 13:40T4CKH1177murni besar50,000
4115/08 13:39JAGUR47lucky992,500
4215/08 13:39SUKI90lucky9910,000
4315/08 13:39HOKKY24balak50,000
4415/08 13:38GARDENA89murni besar50,000
4515/08 13:38HOKIDBDmurni kecil25,000
4615/08 13:38ANAM1712murni besar50,000
4715/08 13:37MATBELTOK1balak100,000
4815/08 13:37REMBO0007murni kecil50,000
4915/08 13:37EXPENDEBLSlucky9910,000
5015/08 13:36SARIMON8murni besar50,000

Ceme Multi Jackpot System

Jackpot dilihat dari gabungan kartu pemain dengan kartu bandar. Bandar harus membeli jackpot sebanyak jumlah player yang sedang duduk. Sebagai contoh bila terdapat 3 pemain duduk bermain, dan bandar memutuskan untuk membeli jackpot Rp 1.000, maka pada periode tersebut bandar akan membeli jackpot sebanyak 3xRp1.000 = Rp3.000.

Jackpot bukanlah suatu keharusan untuk dibeli, namun kami memberikan suatu fitur tambahan untuk member tercinta dari www.kudapoker.win.

Terdapat tiga pilihan harga jackpot yang bisa anda beli yaitu :100,500 dan 1000 rupiah.

Hadiah dari Multi jackpot system www.kudapoker.win

  1. Murni Kecil x 50 harga jackpot yang anda beli.
      (contoh:anda membeli 1000 maka:1000 X 50 = 50.000)
  2. Murni Besar x 50 harga jackpot yang anda beli
      (contoh:anda membeli 1000 maka:1000 X 50 = 50.000)
  3. BALAK x 200 harga jackpot yang anda beli
      (contoh:anda membeli 1000 maka:1000 X 200 = 200.000)
  4. ENAM DEWA x 6666 harga jackpot yang anda beli
      (contoh:anda membeli 1000 maka:1000 X 6666 = 6.666.000)

Demikian adalah penjelasan dari Multi Jackpot www.kudapoker.win terima kasih dan selamat bermain salam hoki dari kami

Ceme Jackpot Winner

TOP ENAM DEWA
No.TanggalNamaPriceWin
115/08 13:50BRAKERmurni enam666,600
215/08 13:41BIBILmurni enam6,666,000
315/08 13:23AMSYONGG2murni enam6,666,000
415/08 13:15BKTARNS56murni enam6,666,000
515/08 13:04MUNCIKARImurni enam3,333,000
TOP BALAK
No.TanggalNamaPriceWin
115/08 14:02EG79balak200,000
215/08 14:02SHIRA54balak20,000
315/08 14:02YAYA6666YAbalak200,000
415/08 14:02UPI667balak20,000
515/08 14:02T3G4D4Ibalak100,000
LATEST JACKPOT
No.TanggalNamaPriceWin
115/08 14:03SULISTIYO7murni besar25,000
215/08 14:03YOWNWINmurni kecil50,000
315/08 14:02EG79balak200,000
415/08 14:02SHIRA54balak20,000
515/08 14:02YAYA6666YAmurni kecil50,000
615/08 14:02DELA1987murni kecil5,000
715/08 14:02YAYA6666YAbalak200,000
815/08 14:02UPI667balak20,000
915/08 14:02ALEXIS11murni besar50,000
1015/08 14:02T3G4D4Ibalak100,000
1115/08 14:02JHECKY88murni besar50,000
1215/08 14:02UCOK2002murni besar25,000
1315/08 14:02TANJIDOR01murni besar50,000
1415/08 14:02MASMONDILbalak100,000
1515/08 14:02BONKbalak200,000
1615/08 14:02DONAL43murni kecil25,000
1715/08 14:02DANDIY07murni kecil50,000
1815/08 14:02TURNIP303balak200,000
1915/08 14:02SWETTY88murni besar50,000
2015/08 14:01BIBILbalak200,000
2115/08 14:01MAKMUN99murni kecil5,000
2215/08 14:01BRIPDAmurni kecil50,000
2315/08 14:01SAKUNI87murni besar50,000
2415/08 14:01CIBLEKJAWObalak200,000
2515/08 14:01D21E9E57balak200,000
2615/08 14:01MLENTE88murni besar50,000
2715/08 14:01RONALDTPmurni besar50,000
2815/08 14:01KOPLO24balak20,000
2915/08 14:01KOZEX555murni kecil50,000
3015/08 14:01Y_ANI888murni besar50,000
3115/08 14:01WULAN9090balak200,000
3215/08 14:01TANTY420balak100,000
3315/08 14:01POWPOW32murni kecil50,000
3415/08 14:01DAVE0808murni kecil50,000
3515/08 14:01KAWULO99murni kecil50,000
3615/08 14:01SATURASAmurni kecil50,000
3715/08 14:00AKAYAImurni besar50,000
3815/08 14:00LIPAN08murni kecil50,000
3915/08 14:00ZEN2121murni kecil50,000
4015/08 14:00LONEYmurni besar5,000
4115/08 14:00DO4IBU21murni kecil50,000
4215/08 14:00RADIANSYAHmurni kecil50,000
4315/08 14:00BANDUNG001balak200,000
4415/08 14:00CUAN234murni kecil50,000
4515/08 14:00DHIKA99999murni kecil50,000
4615/08 14:00MAHRUF77murni kecil50,000
4715/08 14:00LOGD1murni kecil25,000
4815/08 14:00BANDUNG001murni kecil50,000
4915/08 14:00AAKHAFIE50balak100,000
5015/08 13:59B181927833murni besar25,000